NORSAT 3

导读

NORSAT 3是由挪威(NO)开发的通信卫星,于北京时间2021年4月29日8时成功发射升空。该卫星隶属于NORSAT系列卫星,主要承担海事通信、偏远区域数据连通等服务,为北海等区域船舶航行、近海工业提供稳定的通信支持,助力海洋作业与航运安全保障,是挪威航天领域推进商业通信卫星布局的重要组成部分。

Basic Information
目录编号:
48272
目录名称:
NORSAT 3
国际标识:
2021-034E
轨道中心:
EARTH
卫星名称:
NORSAT 3
卫星全名:
--
卫星状态:
在轨 (已飞行1954 天)
发射日期:
2021-04-29 UTC
国别 :
挪威 (NO)
星等 :
--
Orbit Information
数据来源 国际轨道数据
星历时间: 2026-09-05T00:43:57+0800
6小时前
查看轨道信息
半长轴: 6927.005km
偏心率: 0.0008103
轨道倾角: 97.524°
近地点辐角 40.292°
升交点赤经 303.058°
平近点角 319.891°
近地点: 543.255km
远地点: 554.481km
周期: 95.626分钟
每日圈数: 15.058599
Detailed Information
使用方式:
暂无
2D Orbit Map
3D Orbit Map
Orbit Altitude Analysis Chart
Orbit Inclination Analysis Chart
Orbit Comprehensive Analysis Chart
View Comprehensive Chart
Conjunction Data List
Event ID Objects TCA Miss Dist (km) Collision Risk Probability Collision Risk Index (CRI) Action
CDM_260905-035604-827206-917722
NORSAT 3 (48272)
STRIX-7 (69177)
2026-09-05T
03:56:23+0000
1.114 km
极远距离
1.825088E-5 中风险 0.6